TimeCDT,TemperatureF,Dew PointF,Humidity,Sea Level PressureIn,VisibilityMPH,Wind Direction,Wind SpeedMPH,Gust SpeedMPH,PrecipitationIn,Events,Conditions,WindDirDegrees,DateUTC
12:35 AM,46.4,35.6,66,29.67,10.0,NW,9.2,-,N/A,,Overcast,310,2012-10-21 05:35:00
1:15 AM,46.4,32.0,57,29.69,10.0,Calm,Calm,-,N/A,,Overcast,0,2012-10-21 06:15:00
1:35 AM,46.4,32.0,57,29.70,10.0,NNW,5.8,-,N/A,,Overcast,330,2012-10-21 06:35:00
1:55 AM,46.4,32.0,57,29.71,10.0,NNW,8.1,-,N/A,,Overcast,340,2012-10-21 06:55:00
2:15 AM,46.4,32.0,57,29.71,10.0,NNW,6.9,-,N/A,,Overcast,330,2012-10-21 07:15:00
2:35 AM,46.4,32.0,57,29.72,10.0,NNW,8.1,-,N/A,,Overcast,330,2012-10-21 07:35:00
2:55 AM,46.4,32.0,57,29.73,10.0,NNW,11.5,-,N/A,,Overcast,330,2012-10-21 07:55:00
3:15 AM,44.6,35.6,71,29.75,10.0,NW,16.1,20.7,N/A,,Overcast,320,2012-10-21 08:15:00
3:35 AM,44.6,35.6,71,29.76,10.0,NNW,15.0,24.2,N/A,,Overcast,330,2012-10-21 08:35:00
3:55 AM,42.8,35.6,76,29.77,10.0,NNW,12.7,21.9,N/A,,Overcast,330,2012-10-21 08:55:00
4:15 AM,41.0,35.6,81,29.77,10.0,NNW,11.5,-,N/A,,Overcast,330,2012-10-21 09:15:00
4:35 AM,41.0,35.6,81,29.78,10.0,NNW,11.5,-,N/A,,Overcast,330,2012-10-21 09:35:00
5:15 AM,39.2,35.6,87,29.79,10.0,NNW,9.2,-,N/A,,Mostly Cloudy,340,2012-10-21 10:15:00
5:55 AM,39.2,33.8,81,29.81,10.0,North,10.4,-,N/A,,Overcast,350,2012-10-21 10:55:00
6:15 AM,39.2,33.8,81,29.82,10.0,NNW,10.4,-,N/A,,Overcast,340,2012-10-21 11:15:00
6:35 AM,39.2,33.8,81,29.83,10.0,NNW,8.1,-,N/A,,Overcast,330,2012-10-21 11:35:00
6:55 AM,37.4,32.0,81,29.83,10.0,NNW,12.7,-,N/A,,Overcast,340,2012-10-21 11:55:00
7:15 AM,37.4,32.0,81,29.84,10.0,NNW,13.8,18.4,N/A,,Overcast,340,2012-10-21 12:15:00
7:35 AM,37.4,32.0,81,29.85,10.0,NNW,12.7,-,N/A,,Overcast,340,2012-10-21 12:35:00
7:55 AM,37.4,32.0,81,29.86,10.0,NNW,11.5,17.3,N/A,,Overcast,340,2012-10-21 12:55:00
8:15 AM,37.4,32.0,81,29.87,10.0,NNW,9.2,-,N/A,,Overcast,340,2012-10-21 13:15:00
8:35 AM,37.4,32.0,81,29.87,10.0,North,10.4,-,N/A,,Overcast,350,2012-10-21 13:35:00
8:55 AM,37.4,32.0,81,29.88,10.0,North,9.2,-,N/A,,Overcast,350,2012-10-21 13:55:00
9:35 AM,37.4,32.0,81,29.91,10.0,NW,4.6,-,N/A,,Partly Cloudy,320,2012-10-21 14:35:00
9:55 AM,37.4,32.0,81,29.92,10.0,NW,6.9,-,N/A,,Scattered Clouds,320,2012-10-21 14:55:00
10:15 AM,37.4,32.0,81,29.93,10.0,NNW,6.9,-,N/A,,Mostly Cloudy,330,2012-10-21 15:15:00
10:35 AM,37.4,32.0,81,29.94,10.0,NNW,11.5,-,N/A,,Overcast,330,2012-10-21 15:35:00
10:55 AM,39.2,32.0,75,29.94,10.0,NNW,11.5,-,N/A,,Scattered Clouds,330,2012-10-21 15:55:00
11:15 AM,39.2,30.2,70,29.94,10.0,NNW,12.7,-,N/A,,Scattered Clouds,340,2012-10-21 16:15:00
11:35 AM,39.2,28.4,65,29.94,10.0,NNW,13.8,-,N/A,,Mostly Cloudy,340,2012-10-21 16:35:00
11:55 AM,41.0,28.4,61,29.94,10.0,NNW,12.7,-,N/A,,Mostly Cloudy,330,2012-10-21 16:55:00
12:15 PM,41.0,28.4,61,29.95,10.0,NNW,12.7,18.4,N/A,,Mostly Cloudy,330,2012-10-21 17:15:00
12:35 PM,41.0,28.4,61,29.96,10.0,NNW,10.4,-,N/A,,Mostly Cloudy,330,2012-10-21 17:35:00
12:55 PM,41.0,30.2,65,29.96,10.0,NNW,9.2,-,N/A,,Mostly Cloudy,330,2012-10-21 17:55:00
1:15 PM,44.6,28.4,53,29.96,10.0,WNW,13.8,17.3,N/A,,Mostly Cloudy,300,2012-10-21 18:15:00
1:35 PM,44.6,28.4,53,29.95,10.0,NW,10.4,16.1,N/A,,Partly Cloudy,310,2012-10-21 18:35:00
1:55 PM,44.6,28.4,53,29.95,10.0,NW,11.5,17.3,N/A,,Clear,320,2012-10-21 18:55:00
2:15 PM,46.4,26.6,46,29.94,10.0,NW,10.4,18.4,N/A,,Clear,320,2012-10-21 19:15:00
2:35 PM,46.4,26.6,46,29.94,10.0,NNW,10.4,-,N/A,,Clear,330,2012-10-21 19:35:00
2:55 PM,48.2,26.6,43,29.94,10.0,NW,11.5,17.3,N/A,,Clear,320,2012-10-21 19:55:00
3:15 PM,46.4,26.6,46,29.95,10.0,WNW,10.4,-,N/A,,Clear,300,2012-10-21 20:15:00
3:35 PM,48.2,26.6,43,29.96,10.0,NW,9.2,-,N/A,,Clear,320,2012-10-21 20:35:00
3:55 PM,48.2,26.6,43,29.96,10.0,WNW,9.2,-,N/A,,Clear,300,2012-10-21 20:55:00
4:15 PM,48.2,24.8,40,29.97,10.0,NNW,6.9,-,N/A,,Clear,330,2012-10-21 21:15:00
4:35 PM,48.2,24.8,40,29.97,10.0,WNW,6.9,-,N/A,,Clear,290,2012-10-21 21:35:00
4:55 PM,48.2,23.0,37,29.97,10.0,NW,8.1,-,N/A,,Clear,310,2012-10-21 21:55:00
5:15 PM,48.2,24.8,40,29.98,10.0,NW,9.2,-,N/A,,Clear,310,2012-10-21 22:15:00
5:35 PM,48.2,24.8,40,29.98,10.0,NW,4.6,-,N/A,,Clear,320,2012-10-21 22:35:00
5:55 PM,46.4,24.8,43,29.98,10.0,WNW,5.8,-,N/A,,Clear,290,2012-10-21 22:55:00
6:15 PM,44.6,24.8,46,29.98,10.0,NW,4.6,-,N/A,,Clear,310,2012-10-21 23:15:00
6:35 PM,41.0,24.8,53,29.99,10.0,NW,6.9,-,N/A,,Clear,320,2012-10-21 23:35:00
6:55 PM,39.2,24.8,56,29.99,10.0,NW,5.8,-,N/A,,Clear,320,2012-10-21 23:55:00
7:15 PM,37.4,24.8,60,30.00,10.0,NW,4.6,-,N/A,,Clear,310,2012-10-22 00:15:00
7:35 PM,35.6,24.8,65,30.01,10.0,NW,3.5,-,N/A,,Clear,320,2012-10-22 00:35:00
7:55 PM,33.8,24.8,70,30.02,10.0,NW,3.5,-,N/A,,Clear,310,2012-10-22 00:55:00
8:15 PM,33.8,24.8,70,30.02,10.0,Calm,Calm,-,N/A,,Clear,0,2012-10-22 01:15:00
8:35 PM,33.8,24.8,70,30.03,10.0,Calm,Calm,-,N/A,,Clear,0,2012-10-22 01:35:00
8:55 PM,30.2,24.8,80,30.04,10.0,Calm,Calm,-,N/A,,Clear,0,2012-10-22 01:55:00
9:15 PM,32.0,24.8,75,30.04,10.0,Calm,Calm,-,N/A,,Clear,0,2012-10-22 02:15:00
9:35 PM,30.2,24.8,80,30.04,10.0,NNE,4.6,-,N/A,,Mostly Cloudy,30,2012-10-22 02:35:00
9:55 PM,32.0,26.6,80,30.05,10.0,Calm,Calm,-,N/A,,Overcast,0,2012-10-22 02:55:00
10:15 PM,32.0,28.4,87,30.06,10.0,Calm,Calm,-,N/A,,Overcast,0,2012-10-22 03:15:00
10:35 PM,32.0,28.4,87,30.06,10.0,Calm,Calm,-,N/A,,Overcast,0,2012-10-22 03:35:00
10:55 PM,32.0,28.4,87,30.06,10.0,Calm,Calm,-,N/A,,Overcast,0,2012-10-22 03:55:00
11:35 PM,32.0,28.4,87,30.06,10.0,Calm,Calm,-,N/A,,Overcast,0,2012-10-22 04:35:00
11:55 PM,32.0,28.4,87,30.07,10.0,Calm,Calm,-,N/A,,Overcast,0,2012-10-22 04:55:00